FW1946 Weather Reports


time (UTC)temp
C
wind
direction
speed
KPH
gust
KPH
rain 1hr
cm
rain 24hr
cm
rain mn
cm
humidity
%
barometer
mb
20260505170107 17 272 3.2 25.7 0.00 0.00 0.00 65 1014.8
20260505164534 17 276 3.2 19.3 0.00 0.00 0.00 66 1014.7
20260505163031 17 288 3.2 16.1 0.00 0.00 0.00 68 1014.6
20260505161535 16 262 3.2 14.5 0.00 0.00 0.00 69 1014.8
20260505151536 15 246 1.6 12.9 0.00 0.00 0.00 74 1014.7
20260505130108 12 232 1.6 9.7 0.00 0.00 0.00 82 1013.8
20260505124535 12 258 1.6 11.3 0.00 0.00 0.00 81 1013.6
20260505123106 13 264 1.6 17.7 0.00 0.00 0.00 81 1013.6
20260505121536 13 264 1.6 9.7 0.00 0.00 0.00 81 1013.4
20260505114531 13 267 1.6 8.0 0.00 0.00 0.00 80 1013.3
20260505113037 13 276 1.6 14.5 0.00 0.00 0.00 79 1013.3
20260505111531 13 248 1.6 14.5 0.00 0.00 0.00 79 1013.2
20260505101536 14 274 1.6 9.7 0.00 0.00 0.00 77 1012.7
20260505100046 15 256 1.6 14.5 0.00 0.00 0.00 76 1012.6
20260505094642 15 267 3.2 16.1 0.00 0.00 0.00 76 1012.5
20260505093037 15 263 3.2 17.7 0.00 0.00 0.00 75 1012.4
20260505091535 15 259 1.6 14.5 0.00 0.00 0.00 75 1012.3
20260505090036 15 271 3.2 12.9 0.00 0.00 0.00 74 1012.2
20260505084532 16 268 1.6 12.9 0.00 0.00 0.00 74 1012.1
20260505083110 16 255 3.2 17.7 0.00 0.00 0.00 74 1012.1
20260505081536 16 277 1.6 17.7 0.00 0.00 0.00 74 1011.9
20260505080035 16 258 1.6 9.7 0.00 0.00 0.00 74 1011.8
20260505074535 17 256 1.6 11.3 0.00 0.00 0.00 73 1011.6
20260505073032 17 265 1.6 9.7 0.00 0.00 0.00 73 1011.6
20260505070149 17 277 1.6 12.9 0.00 0.00 0.00 71 1011.2
20260505064605 17 261 0.0 14.5 0.00 0.00 0.00 71 1011.1
20260505063028 17 247 1.6 9.7 0.00 0.00 0.00 70 1011.0
20260505054536 18 241 0.0 9.7 0.00 0.00 0.00 66 1010.9
20260505053032 18 263 0.0 8.0 0.00 0.00 0.00 64 1010.8
20260505051534 18 248 1.6 17.7 0.00 0.00 0.00 63 1010.7
20260505041536 20 251 0.0 11.3 0.00 0.00 0.00 59 1010.1
20260505040048 19 265 1.6 11.3 0.00 0.00 0.00 59 1009.8
20260505031608 21 262 0.0 6.4 0.00 0.00 0.00 55 1009.1
20260505030033 21 258 1.6 11.3 0.00 0.00 0.00 55 1008.9
20260505024535 21 256 1.6 11.3 0.00 0.00 0.00 55 1008.7
20260505023036 21 247 1.6 16.1 0.00 0.00 0.00 55 1008.7
20260505020036 22 198 1.6 9.7 0.00 0.00 0.00 53 1008.7
20260505014607 22 234 1.6 11.3 0.00 0.00 0.00 52 1008.6
20260505013033 23 206 3.2 9.7 0.00 0.00 0.00 52 1008.5
20260505010032 23 209 3.2 17.7 0.00 0.00 0.00 50 1008.4
20260505004529 23 241 4.8 17.7 0.00 0.00 0.00 50 1008.4
20260505003032 24 238 3.2 19.3 0.00 0.00 0.00 49 1008.3
20260505001533 23 237 3.2 14.5 0.00 0.00 0.00 49 1008.2
20260505000041 24 242 4.8 17.7 0.00 0.00 0.00 49 1008.2
20260504234533 23 251 3.2 17.7 0.00 0.00 0.00 49 1008.2
20260504233107 24 269 3.2 12.9 0.00 0.00 0.00 49 1008.1
20260504231535 24 267 3.2 12.9 0.00 0.00 0.00 49 1008.1
20260504230042 24 276 3.2 14.5 0.00 0.00 0.00 49 1008.2
20260504224536 24 269 3.2 25.7 0.00 0.00 0.00 49 1008.3
20260504223036 24 283 3.2 19.3 0.00 0.00 0.00 49 1008.6
20260504221536 24 296 3.2 22.5 0.00 0.00 0.00 49 1008.6
20260504220057 -17 0 0.0 0.0 0.00 0.00 0.00 100
20260504214607 24 291 3.2 19.3 0.00 0.00 0.00 49 1008.9
20260504213035 24 286 4.8 17.7 0.00 0.00 0.00 49 1009.1
20260504211536 24 310 4.8 16.1 0.00 0.00 0.00 48 1009.2
20260504204535 25 296 3.2 16.1 0.00 0.00 0.00 45 1009.6
20260504203033 26 314 3.2 17.7 0.00 0.00 0.00 43 1009.8
20260504200032 25 292 4.8 16.1 0.00 0.00 0.00 46 1010.0
20260504193033 25 305 3.2 14.5 0.00 0.00 0.00 47 1010.2
20260504190037 24 284 1.6 12.9 0.00 0.00 0.00 48 1010.5
20260504183031 23 297 3.2 11.3 0.00 0.00 0.00 50 1010.6
20260504181535 22 294 3.2 14.5 0.00 0.00 0.00 51 1010.7
20260504180036 22 295 3.2 14.5 0.00 0.00 0.00 52 1010.7
20260504174536 22 296 4.8 25.7 0.00 0.00 0.00 53 1010.7
20260504173034 21 301 4.8 12.9 0.00 0.00 0.00 54 1010.7
20260504171607 21 302 4.8 20.9 0.00 0.00 0.00 55 1010.7